This is the latest recevied weather packets stored in our database for station/object K5RWS. If no packets are shown the sender has not sent any weather packets the latest 10 day(s).
| Time | Temp. | Humidity | Pressure | Rain* | Wind** | Luminosity | Snow |
|---|---|---|---|---|---|---|---|
| 1777155219 | 23.89° C | 14% | 1010.6 hPa | 0 mm | - | 262 W/m² | - |
| 1777154916 | 23.89° C | 14% | 1010.7 hPa | 0 mm | - | 342 W/m² | - |
| 1777154612 | 23.89° C | 14% | 1010.8 hPa | 0 mm | - | 451 W/m² | - |
| 1777154309 | 24.44° C | 13% | 1010.8 hPa | 0 mm | - | 468 W/m² | - |
| 1777154004 | 23.89° C | 13% | 1011.1 hPa | 0 mm | - | 692 W/m² | - |
| 1777153700 | 24.44° C | 13% | 1010.9 hPa | 0 mm | - | 670 W/m² | - |
| 1777153396 | 23.33° C | 14% | 1011.2 hPa | 0 mm | - | 549 W/m² | - |
| 1777153093 | 23.33° C | 13% | 1011.2 hPa | 0 mm | - | 565 W/m² | - |
| 1777152789 | 23.89° C | 13% | 1011.3 hPa | 0 mm | - | 292 W/m² | - |
| 1777152486 | 23.89° C | 13% | 1011.4 hPa | 0 mm | - | 386 W/m² | - |
| 1777152183 | 23.89° C | 13% | 1011.4 hPa | 0 mm | - | 644 W/m² | - |
| 1777151878 | 23.89° C | 13% | 1011.5 hPa | 0 mm | - | 435 W/m² | - |
| 1777151574 | 24.44° C | 13% | 1011.5 hPa | 0 mm | - | 402 W/m² | - |
| 1777151270 | 23.33° C | 14% | 1011.4 hPa | 0 mm | - | 595 W/m² | - |
| 1777150965 | 23.89° C | 14% | 1011.5 hPa | 0 mm | - | 447 W/m² | - |
| 1777150660 | 23.33° C | 14% | 1011.9 hPa | 0 mm | - | 531 W/m² | - |
| 1777150356 | 23.33° C | 15% | 1011.4 hPa | 0 mm | - | 550 W/m² | - |
| 1777150053 | 22.78° C | 15% | 1011.9 hPa | 0 mm | - | 405 W/m² | - |
| 1777149749 | 23.33° C | 15% | 1012.1 hPa | 0 mm | - | 643 W/m² | - |
| 1777149446 | 23.89° C | 14% | 1012 hPa | 0 mm | - | 712 W/m² | - |
| 1777149142 | 23.33° C | 15% | 1011.9 hPa | 0 mm | - | 718 W/m² | - |
| 1777148841 | 22.78° C | 15% | 1012 hPa | 0 mm | - | 519 W/m² | - |
| 1777148539 | 22.78° C | 15% | 1012.2 hPa | 0 mm | - | 417 W/m² | - |
| 1777148234 | 22.78° C | 15% | 1012.1 hPa | 0 mm | - | 410 W/m² | - |
| 1777147931 | 22.78° C | 14% | 1012.5 hPa | 0 mm | - | 432 W/m² | - |
* Rain latest hour (hover to see other rain measurements)
** Current wind speed in m/s (hover to see current wind gust speed)